{"data":{"norad_id":57918,"intl_designator":"2023-147F","name":"STARLINK-30499","alt_names":[],"object_type":"PAYLOAD","status":"ACTIVE","operator":null,"country":"US","launch_date":"2023-09-24","launch_site_code":"AFETR","launch_vehicle":null,"mission":null,"orbit_class":"UNKNOWN","rcs_meters":null,"size_class":null,"mass_kg":null,"dimensions":null,"purposes":["comms"],"wikipedia_slug":null,"has_3d_model":false,"image_url":null,"decayed_at":null,"tle_current":{"epoch":"2026-09-20T10:07:55.391232Z","epoch_age_seconds":141181,"freshness":"FRESH","line1":"1 57918U 23147F   26263.42216888  .00000057  00000+0  11579-4 0  9993","line2":"2 57918  43.0010 160.4746 0001218 267.7092  92.3620 15.27585068168119","mean_motion":15.27585068,"eccentricity":0.0001218,"inclination_deg":43.001,"raan_deg":160.4746,"arg_perigee_deg":267.7092,"mean_anomaly_deg":92.362,"bstar":1.1579e-5,"rev_number":16811,"period_min":94.266435969116,"perigee_km":482.19823004827,"apogee_km":483.86961128454,"semimajor_km":6861.1709206664,"source":"CELESTRAK","updated_at":"2026-09-21T09:00:33.741115Z"}}}